Theta_e
313 313 312 309 311 311 309 309 309 308 309 308 309 310 312 311 311 310 306 307 307 304
313 313 312 311 311 312 312 311 311 309 308 308 308 308 310 311 310 311 308 306 305 306
312 313 313 312 311 311 311 309 309 309 308 309 307 307 308 311 311 311 310 308 305 306
311 312 312 312 312 310 310 309 309 308 307 309 307 306 307 310 309 309 309 308 306 309
309 311 312 311 311 311 309 309 309 309 308 308 307 307 307 307 307 307 307 308 304 302
307 309 311 310 310 310 309 309 309 308 308 308 308 307 307 307 307 306 308 306 306 301
309 310 310 310 309 309 309 308 308 308 308 309 309 309 309 308 307 306 306 306 305 304
309 309 309 309 308 308 308 308 308 308 308 309 309 308 309 309 308 307 307 308 307 305
308 308 308 308 307 307 307 307 307 307 308 307 306 295 300 305 307 307 306 307 307 305
307 306 307 307 307 306 306 306 306 306 306 306 307 298 298 297 307 307 309 308 304 301
305 305 305 305 305 305 305 305 305 305 306 305 306 297 297 295 306 305 306 306 304 304
304 303 302 303 303 305 304 304 304 304 305 305 305 296 296 297 303 302 302 304 304 304
303 303 302 303 302 302 304 302 301 298 303 299 305 296 296 298 303 300 299 299 302 290
298 299 302 302 299 296 299 294 294 293 296 301 301 302 296 296 302 300 298 297 296 298
Wind_Speed
15 10 11 12 8 8 8 8 11 9 9 7 7 6 7 6 5 7 5 9 6 6
14 14 12 15 11 8 9 8 11 11 10 9 7 6 8 7 6 8 7 4 6 7
15 14 13 14 13 11 10 11 10 11 10 10 8 7 7 7 8 9 7 5 6 6
14 14 14 13 14 11 10 11 12 12 11 11 10 8 8 8 9 9 9 9 7 8
13 14 14 13 13 12 11 12 13 14 13 11 10 10 9 10 10 11 11 11 9 6
13 14 14 14 13 12 11 11 11 12 13 13 12 11 10 10 11 10 11 10 11 8
15 12 11 12 12 12 12 11 11 12 12 12 14 13 13 11 10 10 9 8 8 9
13 11 10 11 11 11 11 11 11 11 11 11 13 11 14 13 12 10 11 10 10 8
12 10 10 10 11 11 11 11 11 11 11 12 8 13 14 13 10 11 10 12 11 10
11 11 11 10 10 11 12 11 11 11 11 11 11 15 17 16 10 10 12 11 8 7
11 11 10 10 11 11 10 12 11 11 11 11 10 15 16 17 11 10 11 10 9 9
11 11 10 11 11 10 9 9 9 9 12 12 11 15 17 15 11 9 10 10 10 11
10 11 11 11 11 8 7 8 7 7 11 12 13 14 18 17 9 10 9 8 10 13
6 7 9 9 6 6 8 5 7 7 7 10 12 11 19 20 11 10 8 8 7 8
Wind_Direction
175 176 172 183 172 174 170 169 165 159 169 169 175 169 169 156 146 147 139 142 136 114
177 177 179 181 172 175 169 172 171 165 158 162 163 171 170 165 155 158 153 119 128 131
182 179 177 178 170 175 175 169 167 171 162 162 162 170 174 171 161 163 160 142 135 140
183 182 177 180 177 173 169 174 171 174 169 170 166 171 176 182 170 168 163 166 166 168
182 186 181 178 178 172 174 180 177 177 173 173 169 175 176 179 182 181 174 175 170 167
184 189 186 182 177 172 172 179 183 174 181 175 179 177 186 183 187 192 190 181 179 170
190 187 188 182 175 173 174 177 182 188 185 182 183 186 190 190 186 193 197 192 191 181
190 185 179 180 177 176 177 180 185 186 191 192 190 193 192 197 195 193 200 202 203 201
189 183 187 184 180 178 181 180 181 190 193 194 196 181 185 188 198 200 199 206 201 204
186 188 192 190 184 183 185 181 188 190 195 200 203 186 186 184 191 203 213 206 199 199
186 189 190 188 192 188 184 188 188 193 195 203 206 191 194 188 196 198 210 209 199 207
189 191 185 190 189 190 185 186 193 197 196 203 208 195 195 185 205 204 208 206 203 204
198 194 195 197 193 190 190 190 187 192 203 201 209 195 196 193 202 208 211 212 214 211
202 199 202 197 182 177 187 172 181 191 205 205 206 200 198 199 206 207 207 213 219 222